Location: *
(44.9308°N, 123.0197°W)
Time: 04:08:16
(UTC+00:00)

BREEZE M DEB (TANK) - Pass Details

Date: 09 April 2020
Orbit: 287 x 14551 km, 49.5° (Epoch: 23 May)

Event Time Altitude Azimuth Distance (km) Brightness Sun altitude
Exits shadow 12:42:28 14° 276° (W) 1,056 3.7 -10.1°
Maximum altitude 12:44:19 49° 351° (N) 562 3.0 -9.8°
Drops below altitude 10° 12:48:53 10° 68° (ENE) 2,523 7.9 -9.0°
Sets 12:53:24 0° 73° (ENE) 4,696 10.1 -8.3°
